Weather History for McCook, NE

Change the Weather History Date:

Saturday, September 7, 2013

  Actual Average Record
Temperature  
Mean Temperature 85 °F 68 °F  
Max Temperature 106 °F 83 °F 106 °F (2013)
Min Temperature 63 °F 53 °F 38 °F (2010)
Cooling Degree Days 20    
Growing Degree Days 34 (Base 50)    
Moisture  
Dew Point 49 °F    
Average Humidity 33    
Maximum Humidity 73    
Minimum Humidity 12    
Precipitation  
Precipitation 0.00 in 0.05 in 1.01 in (1951)
Month to date precipitation 0.00 0.36  
Year to date precipitation 9.17 18.07  
Sea Level Pressure  
Sea Level Pressure 29.86 in    
Wind  
Wind Speed 6 mph (SSW)    
Max Wind Speed 12 mph    
Max Gust Speed 16 mph    
Visibility 10 miles    
Events      
T = Trace of Precipitation, MM = Missing Value Source: NWS Daily Summary

Daily Weather History Graph

Daily Weather History Graph

Search for Another Location

Airport:

Trip Planner

Search our weather history database for the weather conditions in past years. The results will help you decide how hot, cold, wet, or windy it might be!

Date:

Astronomy

Sep. 07, 2013 Rise Set
Actual Time 7:15 AM CDT 8:03 PM CDT
Civil Twilight 6:48 AM CDT 8:31 PM CDT
Nautical Twilight 6:15 AM CDT 9:03 PM CDT
Astronomical Twilight 5:41 AM CDT 9:37 PM CDT
Moon 9:32 AM CDT (9/7) 9:03 PM CDT (9/7)
Length of Visible Light 13h 43m
Length of Day
12h 47m
Waxing Crescent, 5% of the Moon is Illuminated
Sep 7
Waxing Crescent
Sep 12
First Quarter
Sep 19
Full
Sep 26
Last Quarter
Oct 4
New

Hourly Weather History & Observations

Time (CDT) Temp. Heat Index Dew Point Humidity Pressure Visibility Wind Dir Wind Speed Gust Speed Precip Events Conditions
12:53 AM 81.0 °F - 46.0 °F 29% 29.86 in 10.0 mi SW 11.5 mph - N/A   Clear
1:53 AM 78.1 °F - 46.9 °F 33% 29.86 in 10.0 mi SW 6.9 mph - N/A   Clear
2:53 AM 75.9 °F - 46.9 °F 36% 29.87 in 10.0 mi West 4.6 mph - N/A   Clear
3:53 AM 73.9 °F - 46.9 °F 38% 29.87 in 10.0 mi West 6.9 mph - N/A   Clear
4:53 AM 71.1 °F - 48.0 °F 44% 29.88 in 10.0 mi Calm Calm - N/A   Clear
5:53 AM 68.0 °F - 48.0 °F 49% 29.88 in 10.0 mi South 4.6 mph - N/A   Clear
6:53 AM 63.0 °F - 48.0 °F 58% 29.89 in 10.0 mi North 3.5 mph - N/A   Clear
7:53 AM 64.9 °F - 48.9 °F 56% 29.91 in 10.0 mi Calm Calm - N/A   Clear
8:53 AM 72.0 °F - 50.0 °F 46% 29.90 in 10.0 mi SW 5.8 mph - N/A   Clear
9:53 AM 80.1 °F - 51.1 °F 36% 29.91 in 10.0 mi NNW 3.5 mph - N/A   Clear
10:53 AM 88.0 °F - 50.0 °F 27% 29.91 in 10.0 mi Calm Calm - N/A   Clear
11:53 AM 93.0 °F - 48.0 °F 21% 29.91 in 10.0 mi Variable 3.5 mph - N/A   Clear
12:53 PM 98.1 °F - 46.9 °F 18% 29.89 in 10.0 mi ESE 4.6 mph - N/A   Clear
1:53 PM 102.0 °F - 45.0 °F 14% 29.87 in 10.0 mi Variable 3.5 mph - N/A   Clear
2:53 PM 104.0 °F - 42.1 °F 12% 29.85 in 10.0 mi SW 8.1 mph 16.1 mph N/A   Clear
3:53 PM 106.0 °F - 44.1 °F 12% 29.83 in 10.0 mi South 5.8 mph - N/A   Clear
4:53 PM 104.0 °F - 43.0 °F 13% 29.82 in 10.0 mi South 4.6 mph - N/A   Clear
5:53 PM 105.1 °F - 46.0 °F 14% 29.81 in 10.0 mi South 6.9 mph - N/A   Clear
6:53 PM 102.0 °F - 46.0 °F 15% 29.81 in 10.0 mi South 8.1 mph - N/A   Clear
7:53 PM 93.9 °F - 46.9 °F 20% 29.82 in 10.0 mi South 6.9 mph - N/A   Clear
8:53 PM 88.0 °F - 46.0 °F 23% 29.83 in 10.0 mi Calm Calm - N/A   Clear
9:53 PM 82.0 °F 82.4 °F 60.1 °F 47% 29.85 in 10.0 mi ENE 9.2 mph - N/A   Clear
10:53 PM 80.1 °F 81.7 °F 64.0 °F 58% 29.86 in 10.0 mi ENE 5.8 mph - N/A   Clear
11:53 PM 75.0 °F - 66.0 °F 73% 29.86 in 10.0 mi NE 8.1 mph - N/A   Clear